Weather History for KVES - February, 2014

Change the Weather History Date:

Friday, February 21, 2014

  Actual Average (KDAY) Record (KDAY)
Temperature  
Mean Temperature 37 °F 32 °F  
Max Temperature 41 °F 41 °F 68 °F (1930)
Min Temperature 33 °F 24 °F -4 °F (2008)
Degree Days  
Heating Degree Days 28 33  
Month to date heating degree days 733  
Since 1 July heating degree days 4056  
Cooling Degree Days 0 0  
Month to date cooling degree days 0  
Year to date cooling degree days 0  
Moisture  
Dew Point 28 °F    
Average Humidity 73    
Maximum Humidity 93    
Minimum Humidity 52    
Precipitation  
Precipitation 0.00 in 0.08 in 1.39 in (1945)
Month to date precipitation 1.67  
Year to date precipitation 4.38  
Snow  
Snow 0.00 in 0.20 in 9.00 in (1912)
Month to date snowfall 4.5  
Since 1 July snowfall 17.9  
Snow Depth -    
Sea Level Pressure  
Sea Level Pressure 29.75 in    
Wind  
Wind Speed 18 mph (SW)    
Max Wind Speed 29 mph    
Max Gust Speed 40 mph    
Visibility 10 miles    
Events      
T = Trace of Precipitation, MM = Missing Value Source: NWS Daily Summary

Daily Weather History Graph

Daily Weather History Graph

Search for Another Location

Airport or City:

Trip Planner

Search our weather history database for the weather conditions in past years. The results will help you decide how hot, cold, wet, or windy it might be!

Date:

Astronomy

Feb. 21, 2014 Rise Set
Actual Time 7:23 AM EST 6:20 PM EST
Civil Twilight 6:55 AM EST 6:48 PM EST
Nautical Twilight 6:24 AM EST 7:19 PM EST
Astronomical Twilight 5:52 AM EST 7:51 PM EST
Moon 12:13 AM EST (2/21) 10:46 AM EST (2/21)
Length of Visible Light 11h 52m
Length of Day
10h 57m
Waning Gibbous, 61% of the Moon is Illuminated
Feb 21
Waning Gibbous
Feb 22
Last Quarter
Mar 1
New
Mar 8
First Quarter
Mar 16
Full

Hourly Weather History & Observations

Time (EST) Temp. Windchill Dew Point Humidity Pressure Visibility Wind Dir Wind Speed Gust Speed Precip Events Conditions
12:15 AM 41.0 °F 31.9 °F 35.6 °F 81% 29.56 in 10.0 mi West 19.6 mph 26.5 mph N/A   Unknown
12:35 AM 37.4 °F 26.9 °F 33.8 °F 87% 29.56 in 10.0 mi West 20.7 mph 29.9 mph N/A   Unknown
12:55 AM 37.4 °F 26.4 °F 33.8 °F 87% 29.58 in 10.0 mi West 23.0 mph 27.6 mph N/A   Unknown
1:15 AM 35.6 °F 27.1 °F 32.0 °F 87% 29.59 in 10.0 mi West 12.7 mph 23.0 mph N/A   Unknown
1:35 AM 35.6 °F 27.1 °F 32.0 °F 87% 29.61 in 10.0 mi WSW 12.7 mph 17.3 mph N/A   Unknown
1:55 AM 35.6 °F 27.5 °F 32.0 °F 87% 29.62 in 10.0 mi WSW 11.5 mph 19.6 mph N/A   Unknown
2:15 AM 35.6 °F 25.9 °F 32.0 °F 87% 29.63 in 10.0 mi West 16.1 mph 21.9 mph N/A   Unknown
2:35 AM 35.6 °F 28.0 °F 32.0 °F 87% 29.63 in 10.0 mi WSW 10.4 mph - N/A   Unknown
2:55 AM 35.6 °F 27.5 °F 32.0 °F 87% 29.64 in 10.0 mi SW 11.5 mph 17.3 mph N/A   Unknown
3:15 AM 35.6 °F 27.1 °F 32.0 °F 87% 29.63 in 10.0 mi WSW 12.7 mph 17.3 mph N/A   Unknown
3:35 AM 35.6 °F 27.1 °F 32.0 °F 87% 29.63 in 10.0 mi SW 12.7 mph - N/A   Unknown
3:55 AM 33.8 °F 24.3 °F 32.0 °F 93% 29.64 in 10.0 mi SW 13.8 mph 18.4 mph N/A   Unknown
4:15 AM 33.8 °F 23.9 °F 32.0 °F 93% 29.63 in 10.0 mi SW 15.0 mph 23.0 mph N/A   Clear
4:35 AM 33.8 °F 23.9 °F 32.0 °F 93% 29.64 in 10.0 mi SW 15.0 mph 20.7 mph N/A   Clear
4:55 AM 33.8 °F 23.5 °F 32.0 °F 93% 29.65 in 10.0 mi SW 16.1 mph 23.0 mph N/A   Clear
5:15 AM 33.8 °F 22.8 °F 30.2 °F 87% 29.66 in 10.0 mi SW 18.4 mph 23.0 mph N/A   Clear
5:35 AM 35.6 °F 24.8 °F 30.2 °F 81% 29.66 in 10.0 mi SW 19.6 mph 27.6 mph N/A   Clear
5:55 AM 35.6 °F 25.2 °F 30.2 °F 81% 29.66 in 10.0 mi SW 18.4 mph 27.6 mph N/A   Clear
6:15 AM 33.8 °F 22.5 °F 30.2 °F 87% 29.66 in 10.0 mi SW 19.6 mph 25.3 mph N/A   Clear
6:35 AM 35.6 °F 24.8 °F 30.2 °F 81% 29.66 in 10.0 mi SW 19.6 mph 26.5 mph N/A   Clear
6:55 AM 33.8 °F 21.9 °F 30.2 °F 87% 29.66 in 10.0 mi SW 21.9 mph 27.6 mph N/A   Clear
7:15 AM 35.6 °F 24.0 °F 30.2 °F 81% 29.67 in 10.0 mi SW 23.0 mph 28.8 mph N/A   Clear
7:35 AM 33.8 °F 22.5 °F 30.2 °F 87% 29.67 in 10.0 mi SW 19.6 mph 28.8 mph N/A   Clear
7:55 AM 33.8 °F 21.6 °F 30.2 °F 87% 29.68 in 10.0 mi SW 23.0 mph 29.9 mph N/A   Scattered Clouds
8:15 AM 35.6 °F 23.2 °F 30.2 °F 81% 29.69 in 10.0 mi SW 26.5 mph 39.1 mph N/A   Mostly Cloudy
8:35 AM 35.6 °F 24.2 °F 30.2 °F 81% 29.69 in 10.0 mi SW 21.9 mph 29.9 mph N/A   Overcast
8:55 AM 35.6 °F 25.5 °F 30.2 °F 81% 29.70 in 10.0 mi SW 17.3 mph 25.3 mph N/A   Overcast
9:15 AM 35.6 °F 23.2 °F 30.2 °F 81% 29.70 in 10.0 mi SW 26.5 mph 35.7 mph N/A   Overcast
9:35 AM 35.6 °F 24.0 °F 30.2 °F 81% 29.70 in 10.0 mi WSW 23.0 mph 33.4 mph N/A   Overcast
9:55 AM 35.6 °F 24.5 °F 28.4 °F 75% 29.71 in 10.0 mi WSW 20.7 mph 32.2 mph N/A   Overcast
10:15 AM 33.8 °F 20.3 °F 28.4 °F 81% 29.72 in 10.0 mi WSW 28.8 mph 34.5 mph N/A   Overcast
10:35 AM 33.8 °F 23.5 °F 28.4 °F 81% 29.72 in 10.0 mi WSW 16.1 mph 29.9 mph N/A   Overcast
10:55 AM 35.6 °F 24.2 °F 28.4 °F 75% 29.72 in 10.0 mi WSW 21.9 mph 38.0 mph N/A   Scattered Clouds
11:15 AM 35.6 °F 23.7 °F 28.4 °F 75% 29.73 in 10.0 mi WSW 24.2 mph 35.7 mph N/A   Mostly Cloudy
11:35 AM 35.6 °F 24.2 °F 28.4 °F 75% 29.74 in 10.0 mi WSW 21.9 mph 40.3 mph N/A   Mostly Cloudy
11:55 AM 37.4 °F 27.2 °F 28.4 °F 70% 29.74 in 10.0 mi WSW 19.6 mph 33.4 mph N/A   Mostly Cloudy
12:15 PM 35.6 °F 24.5 °F 28.4 °F 75% 29.75 in 10.0 mi WSW 20.7 mph 34.5 mph N/A   Mostly Cloudy
12:35 PM 35.6 °F 24.0 °F 28.4 °F 75% 29.75 in 10.0 mi WSW 23.0 mph 34.5 mph N/A   Mostly Cloudy
12:55 PM 37.4 °F 25.9 °F 28.4 °F 70% 29.76 in 10.0 mi WSW 25.3 mph 35.7 mph N/A   Mostly Cloudy
1:15 PM 37.4 °F 26.4 °F 28.4 °F 70% 29.76 in 10.0 mi West 23.0 mph 29.9 mph N/A   Mostly Cloudy
1:35 PM 37.4 °F 26.6 °F 28.4 °F 70% 29.77 in 10.0 mi WSW 21.9 mph 33.4 mph N/A   Mostly Cloudy
1:55 PM 37.4 °F 25.4 °F 28.4 °F 70% 29.77 in 10.0 mi WSW 27.6 mph 35.7 mph N/A   Mostly Cloudy
2:15 PM 37.4 °F 25.6 °F 26.6 °F 65% 29.77 in 10.0 mi WSW 26.5 mph 39.1 mph N/A   Mostly Cloudy
2:35 PM 37.4 °F 26.1 °F 26.6 °F 65% 29.77 in 10.0 mi West 24.2 mph 38.0 mph N/A   Scattered Clouds
2:55 PM 39.2 °F 27.8 °F 26.6 °F 61% 29.79 in 10.0 mi WSW 27.6 mph 34.5 mph N/A   Scattered Clouds
3:15 PM 39.2 °F 28.3 °F 28.4 °F 65% 29.79 in 10.0 mi WSW 25.3 mph 33.4 mph N/A   Clear
3:35 PM 37.4 °F 27.5 °F 24.8 °F 60% 29.80 in 10.0 mi WSW 18.4 mph 39.1 mph N/A   Clear
3:55 PM 39.2 °F 28.3 °F 28.4 °F 65% 29.81 in 10.0 mi WSW 25.3 mph 31.1 mph N/A   Clear
4:15 PM 37.4 °F 25.6 °F 23.0 °F 56% 29.82 in 10.0 mi WSW 26.5 mph 38.0 mph N/A   Clear
4:35 PM 39.2 °F 28.5 °F 24.8 °F 56% 29.83 in 10.0 mi WSW 24.2 mph 29.9 mph N/A   Clear
4:55 PM 37.4 °F 26.9 °F 23.0 °F 56% 29.84 in 10.0 mi WSW 20.7 mph 33.4 mph N/A   Clear
5:15 PM 37.4 °F 28.5 °F 23.0 °F 56% 29.84 in 10.0 mi WSW 15.0 mph 25.3 mph N/A   Clear
5:35 PM 37.4 °F 26.9 °F 21.2 °F 52% 29.85 in 10.0 mi WSW 20.7 mph 31.1 mph N/A   Clear
5:55 PM 37.4 °F 28.2 °F 21.2 °F 52% 29.86 in 10.0 mi WSW 16.1 mph 25.3 mph N/A   Clear
6:15 PM 35.6 °F 25.9 °F 23.0 °F 60% 29.86 in 10.0 mi WSW 16.1 mph 20.7 mph N/A   Clear
6:35 PM 35.6 °F 26.6 °F 23.0 °F 60% 29.87 in 10.0 mi SW 13.8 mph 21.9 mph N/A   Clear
6:55 PM 35.6 °F 26.2 °F 23.0 °F 60% 29.88 in 10.0 mi SW 15.0 mph - N/A   Clear
7:15 PM 35.6 °F 27.1 °F 23.0 °F 60% 29.89 in 10.0 mi SW 12.7 mph 19.6 mph N/A   Clear
7:35 PM 35.6 °F 26.2 °F 21.2 °F 56% 29.90 in 10.0 mi SW 15.0 mph 20.7 mph N/A   Clear
7:55 PM 35.6 °F 26.2 °F 23.0 °F 60% 29.90 in 10.0 mi SW 15.0 mph - N/A   Clear
8:15 PM 35.6 °F 27.1 °F 23.0 °F 60% 29.90 in 10.0 mi SW 12.7 mph 18.4 mph N/A   Clear
8:35 PM 35.6 °F 25.9 °F 23.0 °F 60% 29.90 in 10.0 mi SW 16.1 mph 20.7 mph N/A   Clear
8:55 PM 35.6 °F 28.0 °F 23.0 °F 60% 29.90 in 10.0 mi SW 10.4 mph 18.4 mph N/A   Clear
9:15 PM 35.6 °F 27.1 °F 23.0 °F 60% 29.91 in 10.0 mi SW 12.7 mph - N/A   Clear
9:35 PM 35.6 °F 27.1 °F 23.0 °F 60% 29.91 in 10.0 mi SW 12.7 mph - N/A   Clear
9:55 PM 35.6 °F 27.5 °F 21.2 °F 56% 29.91 in 10.0 mi SW 11.5 mph - N/A   Clear
10:15 PM 35.6 °F 28.0 °F 21.2 °F 56% 29.91 in 10.0 mi SW 10.4 mph 18.4 mph N/A   Clear
10:35 PM 35.6 °F 27.1 °F 21.2 °F 56% 29.90 in 10.0 mi SSW 12.7 mph - N/A   Clear
10:55 PM 33.8 °F 27.0 °F 21.2 °F 60% 29.90 in 10.0 mi SSW 8.1 mph - N/A   Clear
11:15 PM 33.8 °F 27.0 °F 23.0 °F 65% 29.89 in 10.0 mi SSW 8.1 mph - N/A   Clear
11:35 PM 33.8 °F 25.8 °F 23.0 °F 65% 29.89 in 10.0 mi SSW 10.4 mph - N/A   Clear
11:55 PM 33.8 °F 26.4 °F 23.0 °F 65% 29.89 in 10.0 mi SSW 9.2 mph - N/A   Scattered Clouds